Weather History for Pine Ridge, SD

Change the Weather History Date:

Wednesday, February 13, 2013

  Actual Average Record
Temperature  
Mean Temperature 38 °F 26 °F  
Max Temperature 50 °F 39 °F 64 °F (1999)
Min Temperature 25 °F 13 °F -16 °F (2007)
Degree Days  
Heating Degree Days 27 39  
Month to date heating degree days 418 520  
Since 1 July heating degree days 4545 4797  
Cooling Degree Days 0 0  
Month to date cooling degree days 0 0  
Year to date cooling degree days 0 0  
Moisture  
Dew Point 22 °F    
Average Humidity 60    
Maximum Humidity 85    
Minimum Humidity 34    
Precipitation  
Precipitation T in 0.02 in 0.05 in (2000)
Month to date precipitation 0.01 0.24  
Year to date precipitation 0.74 0.56  
Sea Level Pressure  
Sea Level Pressure 29.91 in    
Wind  
Wind Speed 9 mph (West)    
Max Wind Speed 29 mph    
Max Gust Speed 36 mph    
Visibility 10 miles    
Events Rain    
T = Trace of Precipitation, MM = Missing Value Source: NWS Daily Summary

Daily Weather History Graph

Daily Weather History Graph

Search for Another Location

Airport:

Trip Planner

Search our weather history database for the weather conditions in past years. The results will help you decide how hot, cold, wet, or windy it might be!

Date:

Astronomy

Feb. 13, 2013 Rise Set
Actual Time 6:49 AM MST 5:19 PM MST
Civil Twilight 6:20 AM MST 5:48 PM MST
Nautical Twilight 5:47 AM MST 6:21 PM MST
Astronomical Twilight 5:14 AM MST 6:54 PM MST
Moon 8:13 AM MST (2/13) 9:32 PM MST (2/13)
Length of Visible Light 11h 27m
Length of Day
10h 29m
Waxing Crescent, 14% of the Moon is Illuminated
Feb 13
Waxing Crescent
Feb 17
First Quarter
Feb 25
Full
Mar 4
Last Quarter
Mar 11
New

Hourly Weather History & Observations

Time (MST) Temp. Windchill Dew Point Humidity Pressure Visibility Wind Dir Wind Speed Gust Speed Precip Events Conditions
12:52 AM 28.0 °F 19.3 °F 17.1 °F 63% 29.97 in 10.0 mi West 9.2 mph - N/A   Clear
1:52 AM 26.1 °F 19.4 °F 17.1 °F 69% 29.96 in 10.0 mi SW 5.8 mph - N/A   Clear
2:52 AM 26.1 °F 19.4 °F 17.1 °F 69% 29.94 in 10.0 mi WSW 5.8 mph - N/A   Clear
3:52 AM 28.9 °F 20.4 °F 18.0 °F 64% 29.92 in 10.0 mi WSW 9.2 mph - N/A   Overcast
4:52 AM 27.0 °F 18.0 °F 17.1 °F 66% 29.94 in 10.0 mi WSW 9.2 mph - N/A   Mostly Cloudy
5:52 AM 27.0 °F 18.0 °F 17.1 °F 66% 29.92 in 10.0 mi SW 9.2 mph - N/A   Clear
6:52 AM 26.1 °F 16.8 °F 17.1 °F 69% 29.92 in 10.0 mi WSW 9.2 mph - N/A   Clear
7:52 AM 30.9 °F 22.8 °F 18.0 °F 59% 29.92 in 10.0 mi West 9.2 mph - N/A   Overcast
8:52 AM 34.0 °F 25.5 °F 18.0 °F 52% 29.91 in 10.0 mi West 11.5 mph - N/A   Overcast
9:52 AM 36.0 °F 26.0 °F 18.0 °F 48% 29.88 in 10.0 mi West 17.3 mph 23.0 mph N/A   Overcast
10:52 AM 41.0 °F 34.7 °F 19.9 °F 43% 29.87 in 10.0 mi West 10.4 mph - N/A   Overcast
11:52 AM 46.0 °F 39.3 °F 21.0 °F 37% 29.83 in 10.0 mi West 16.1 mph 24.2 mph N/A   Clear
12:52 PM 48.0 °F - 21.0 °F 34% 29.81 in 10.0 mi WNW 19.6 mph 26.5 mph N/A   Clear
1:52 PM 46.9 °F - 21.9 °F 37% 29.81 in 10.0 mi WNW 18.4 mph 25.3 mph N/A   Mostly Cloudy
2:52 PM 48.0 °F - 21.9 °F 36% 29.80 in 10.0 mi WNW 16.1 mph 29.9 mph N/A   Mostly Cloudy
3:52 PM 44.1 °F 39.0 °F 27.0 °F 51% 29.83 in 10.0 mi WNW 9.2 mph - 0.00 in   Overcast
4:33 PM 41.0 °F 33.9 °F 28.4 °F 61% 29.81 in 10.0 mi North 12.7 mph - 0.00 in   Overcast
4:52 PM 41.0 °F 34.7 °F 28.0 °F 60% 29.88 in 10.0 mi NNW 10.4 mph - 0.00 in Rain Light Rain
5:52 PM 37.0 °F 34.5 °F 30.0 °F 76% 29.90 in 10.0 mi NW 3.5 mph - 0.00 in   Overcast
6:52 PM 36.0 °F - 28.0 °F 73% 29.94 in 10.0 mi Calm Calm - N/A   Mostly Cloudy
7:52 PM 36.0 °F 31.1 °F 27.0 °F 70% 29.97 in 10.0 mi WNW 5.8 mph - N/A   Mostly Cloudy
8:52 PM 34.0 °F 31.0 °F 27.0 °F 75% 29.99 in 10.0 mi West 3.5 mph - N/A   Scattered Clouds
9:52 PM 32.0 °F - 27.0 °F 82% 30.01 in 10.0 mi Calm Calm - N/A   Clear
10:52 PM 32.0 °F 24.2 °F 28.0 °F 85% 30.00 in 10.0 mi SW 9.2 mph - N/A   Overcast
11:52 PM 33.1 °F 26.1 °F 27.0 °F 78% 30.00 in 10.0 mi NW 8.1 mph - N/A   Clear